Radiation Dose at Monitoring Post of Fukushima Daini Nuclear Power Station
Date,Time,MP-1(microSv/h),MP-2(microSv/h),MP-3(microSv/h),MP-4(microSv/h),MP-5(microSv/h),MP-6(microSv/h),MP-7(microSv/h),Wind Direction,Wind Velocity(m/s),Rain
2015/12/26,00:00,0.459,0.272,0.479,0.437,0.422,0.220,0.192,north-northwest,2.4,No
2015/12/26,00:10,0.457,0.270,0.479,0.436,0.419,0.220,0.193,north-northwest,1.9,No
2015/12/26,00:20,0.457,0.270,0.478,0.435,0.420,0.220,0.192,northwest,0.7,No
2015/12/26,00:30,0.457,0.271,0.481,0.435,0.421,0.220,0.192,-,CALM,No
2015/12/26,00:40,0.457,0.270,0.478,0.436,0.420,0.219,0.192,north-northwest,2.9,No
2015/12/26,00:50,0.456,0.269,0.478,0.434,0.419,0.219,0.192,north-northwest,4.2,No
2015/12/26,01:00,0.456,0.269,0.480,0.435,0.418,0.220,0.191,north-northwest,5.9,No
2015/12/26,01:10,0.457,0.269,0.477,0.436,0.419,0.220,0.191,north-northwest,5.0,No
2015/12/26,01:20,0.455,0.269,0.478,0.433,0.419,0.219,0.191,north-northwest,4.8,No
2015/12/26,01:30,0.455,0.268,0.475,0.434,0.418,0.219,0.191,north-northwest,5.4,No
2015/12/26,01:40,0.456,0.268,0.477,0.434,0.418,0.219,0.192,north,5.6,No
2015/12/26,01:50,0.457,0.268,0.476,0.435,0.419,0.219,0.191,north,5.5,No
2015/12/26,02:00,0.455,0.269,0.477,0.434,0.420,0.219,0.192,north,6.8,No
2015/12/26,02:10,0.457,0.268,0.477,0.433,0.418,0.219,0.191,north,5.7,No
2015/12/26,02:20,0.457,0.269,0.475,0.435,0.417,0.220,0.191,north,5.7,No
2015/12/26,02:30,0.456,0.269,0.476,0.436,0.419,0.221,0.191,north,6.5,No
2015/12/26,02:40,0.456,0.268,0.476,0.433,0.417,0.219,0.191,north,6.1,No
2015/12/26,02:50,0.455,0.269,0.477,0.434,0.418,0.219,0.190,north,6.6,No
2015/12/26,03:00,0.455,0.268,0.476,0.436,0.418,0.220,0.191,north,5.6,No
2015/12/26,03:10,0.455,0.268,0.476,0.435,0.419,0.219,0.191,north-northwest,4.9,No
2015/12/26,03:20,0.455,0.269,0.478,0.434,0.420,0.218,0.190,north-northwest,3.6,No
2015/12/26,03:30,0.456,0.269,0.477,0.434,0.417,0.219,0.190,north-northwest,4.5,No
2015/12/26,03:40,0.454,0.268,0.476,0.435,0.417,0.218,0.191,northwest,3.2,No
2015/12/26,03:50,0.453,0.268,0.476,0.435,0.417,0.220,0.190,west-northwest,2.9,No
2015/12/26,04:00,0.454,0.268,0.476,0.434,0.418,0.221,0.190,west-northwest,2.2,No
2015/12/26,04:10,0.456,0.267,0.477,0.432,0.419,0.220,0.191,north-northwest,1.6,No
2015/12/26,04:20,0.455,0.269,0.477,0.435,0.417,0.220,0.191,northwest,2.0,No
2015/12/26,04:30,0.453,0.268,0.477,0.434,0.416,0.220,0.191,west-northwest,1.5,No
2015/12/26,04:40,0.454,0.268,0.478,0.432,0.418,0.219,0.191,west-northwest,2.5,No
2015/12/26,04:50,0.454,0.268,0.478,0.434,0.418,0.220,0.190,west,0.9,No
2015/12/26,05:00,0.454,0.269,0.477,0.435,0.418,0.220,0.192,-,CALM,No
2015/12/26,05:10,0.454,0.268,0.477,0.435,0.416,0.219,0.191,south,0.6,No
2015/12/26,05:20,0.455,0.268,0.477,0.432,0.418,0.219,0.190,south,0.7,No
2015/12/26,05:30,0.453,0.267,0.479,0.434,0.420,0.220,0.191,northeast,0.9,No
2015/12/26,05:40,0.455,0.269,0.476,0.433,0.418,0.220,0.192,northeast,1.2,No
2015/12/26,05:50,0.455,0.268,0.477,0.436,0.418,0.218,0.192,north-northeast,1.9,No
2015/12/26,06:00,0.454,0.268,0.478,0.436,0.419,0.220,0.191,north,2.2,No
2015/12/26,06:10,0.454,0.268,0.478,0.433,0.418,0.221,0.192,north-northeast,1.7,No
2015/12/26,06:20,0.456,0.267,0.478,0.434,0.421,0.220,0.192,north,1.6,No
2015/12/26,06:30,0.456,0.269,0.476,0.435,0.419,0.220,0.192,northwest,2.4,No
2015/12/26,06:40,0.454,0.269,0.478,0.435,0.419,0.220,0.191,northwest,2.1,No
2015/12/26,06:50,0.455,0.269,0.478,0.434,0.418,0.220,0.192,west-northwest,1.2,No
2015/12/26,07:00,0.455,0.268,0.476,0.433,0.418,0.220,0.192,west,1.1,No
2015/12/26,07:10,0.454,0.268,0.477,0.434,0.419,0.219,0.191,west,0.8,No
2015/12/26,07:20,0.455,0.268,0.477,0.432,0.419,0.219,0.191,west-northwest,1.4,No
2015/12/26,07:30,0.454,0.269,0.477,0.434,0.418,0.220,0.192,west-northwest,0.9,No
2015/12/26,07:40,0.455,0.269,0.478,0.435,0.417,0.219,0.191,northwest,1.0,No
2015/12/26,07:50,0.452,0.268,0.479,0.434,0.417,0.219,0.191,north,2.6,No
2015/12/26,08:00,0.454,0.267,0.476,0.434,0.420,0.219,0.191,north,5.0,No
2015/12/26,08:10,0.454,0.267,0.477,0.434,0.419,0.219,0.191,north,5.0,No
2015/12/26,08:20,0.454,0.269,0.479,0.435,0.418,0.220,0.191,north,2.6,No
2015/12/26,08:30,0.454,0.267,0.479,0.433,0.418,0.219,0.191,north,3.1,No
2015/12/26,08:40,0.454,0.268,0.478,0.432,0.418,0.220,0.191,north,2.5,No
2015/12/26,08:50,0.455,0.268,0.477,0.435,0.419,0.219,0.191,north-northwest,2.8,No
2015/12/26,09:00,0.455,0.268,0.478,0.432,0.417,0.218,0.191,north,3.5,No
2015/12/26,09:10,0.455,0.267,0.479,0.431,0.417,0.218,0.191,north-northeast,1.8,No
2015/12/26,09:20,0.454,0.268,0.477,0.433,0.418,0.219,0.189,northeast,1.4,No
2015/12/26,09:30,0.454,0.267,0.476,0.432,0.419,0.220,0.191,east-northeast,2.5,No
2015/12/26,09:40,0.455,0.266,0.478,0.434,0.417,0.219,0.191,east,2.2,No
2015/12/26,09:50,0.455,0.267,0.478,0.434,0.417,0.219,0.191,east,2.9,No
2015/12/26,10:00,0.455,0.267,0.476,0.433,0.418,0.219,0.192,east-southeast,1.7,No
2015/12/26,10:10,0.454,0.268,0.475,0.436,0.415,0.219,0.191,east-southeast,1.4,No
2015/12/26,10:20,0.455,0.268,0.479,0.435,0.418,0.220,0.191,southeast,2.4,No
2015/12/26,10:30,0.452,0.267,0.476,0.435,0.418,0.219,0.190,east-southeast,2.0,No
2015/12/26,10:40,0.455,0.268,0.476,0.435,0.418,0.221,0.192,southeast,1.5,No
2015/12/26,10:50,0.452,0.268,0.478,0.435,0.419,0.220,0.191,east,2.2,No
2015/12/26,11:00,0.455,0.267,0.475,0.436,0.418,0.220,0.193,east-southeast,2.4,No
2015/12/26,11:10,0.455,0.269,0.476,0.434,0.420,0.220,0.192,east-southeast,2.0,No
2015/12/26,11:20,0.452,0.268,0.478,0.434,0.417,0.220,0.192,southeast,3.4,No
2015/12/26,11:30,0.456,0.268,0.476,0.436,0.419,0.220,0.192,southeast,3.6,No
2015/12/26,11:40,0.454,0.268,0.478,0.434,0.420,0.220,0.193,south-southeast,4.4,No
2015/12/26,11:50,0.456,0.267,0.474,0.435,0.418,0.221,0.191,southeast,2.8,No
2015/12/26,12:00,0.454,0.268,0.474,0.435,0.423,0.220,0.192,southeast,3.1,No
2015/12/26,12:10,0.455,0.268,0.478,0.435,0.417,0.220,0.191,south-southeast,3.4,No
2015/12/26,12:20,0.452,0.268,0.475,0.436,0.422,0.220,0.191,south-southeast,2.5,No
2015/12/26,12:30,0.454,0.268,0.478,0.435,0.419,0.220,0.192,southeast,2.7,No
2015/12/26,12:40,0.454,0.268,0.477,0.437,0.422,0.221,0.192,southeast,3.1,No
2015/12/26,12:50,0.455,0.269,0.479,0.437,0.422,0.220,0.191,south-southeast,3.8,No
2015/12/26,13:00,0.458,0.269,0.481,0.435,0.420,0.220,0.192,south-southeast,3.9,No
2015/12/26,13:10,0.459,0.269,0.476,0.438,0.421,0.220,0.191,south-southeast,3.1,No
2015/12/26,13:20,0.456,0.269,0.479,0.437,0.421,0.220,0.192,south-southeast,3.7,No
2015/12/26,13:30,0.459,0.269,0.479,0.436,0.418,0.220,0.191,south-southeast,3.5,No
2015/12/26,13:40,0.456,0.267,0.477,0.437,0.420,0.221,0.192,south,3.7,No
2015/12/26,13:50,0.457,0.269,0.481,0.435,0.420,0.220,0.191,south,5.2,No
2015/12/26,14:00,0.458,0.267,0.477,0.435,0.417,0.220,0.191,south,6.1,No
2015/12/26,14:10,0.456,0.268,0.477,0.436,0.421,0.220,0.193,south,7.0,No
2015/12/26,14:20,0.457,0.269,0.479,0.435,0.422,0.220,0.191,south,6.6,No
2015/12/26,14:30,0.454,0.269,0.478,0.437,0.419,0.220,0.192,south,6.2,No
2015/12/26,14:40,0.456,0.269,0.478,0.438,0.421,0.219,0.191,south,7.5,No
2015/12/26,14:50,0.459,0.267,0.477,0.434,0.418,0.220,0.192,south,8.5,No
2015/12/26,15:00,0.456,0.268,0.477,0.437,0.419,0.221,0.194,south,9.8,No
2015/12/26,15:10,0.456,0.269,0.480,0.437,0.421,0.220,0.192,south,8.6,No
2015/12/26,15:20,0.458,0.268,0.476,0.437,0.418,0.220,0.192,south,8.8,No
2015/12/26,15:30,0.456,0.268,0.479,0.438,0.419,0.221,0.192,south,9.2,No
2015/12/26,15:40,0.455,0.270,0.479,0.435,0.421,0.220,0.193,south,8.6,No
2015/12/26,15:50,0.457,0.269,0.477,0.436,0.421,0.221,0.192,south,8.4,No
2015/12/26,16:00,0.455,0.268,0.477,0.438,0.421,0.222,0.193,south,6.8,No
2015/12/26,16:10,0.457,0.270,0.479,0.436,0.420,0.220,0.193,south,6.3,No
2015/12/26,16:20,0.458,0.268,0.478,0.434,0.420,0.220,0.192,south-southwest,7.0,No
2015/12/26,16:30,0.456,0.269,0.478,0.437,0.420,0.220,0.192,south-southwest,7.7,No
2015/12/26,16:40,0.458,0.269,0.479,0.439,0.419,0.220,0.192,south-southwest,8.1,No
2015/12/26,16:50,0.459,0.269,0.478,0.434,0.419,0.220,0.192,south-southwest,5.8,No
2015/12/26,17:00,0.457,0.268,0.480,0.437,0.418,0.222,0.193,south-southwest,7.0,No
2015/12/26,17:10,0.456,0.269,0.481,0.436,0.419,0.220,0.193,south-southwest,7.0,No
2015/12/26,17:20,0.457,0.268,0.477,0.436,0.420,0.220,0.192,south-southwest,6.8,No
2015/12/26,17:30,0.456,0.269,0.477,0.437,0.417,0.220,0.193,south-southwest,7.8,No
2015/12/26,17:40,0.456,0.269,0.480,0.437,0.420,0.220,0.193,southwest,8.1,No
2015/12/26,17:50,0.456,0.268,0.479,0.436,0.421,0.220,0.193,southwest,8.1,No
2015/12/26,18:00,0.457,0.269,0.477,0.436,0.419,0.221,0.192,southwest,7.5,No
2015/12/26,18:10,0.455,0.270,0.480,0.437,0.417,0.220,0.192,southwest,8.5,No
2015/12/26,18:20,0.456,0.269,0.479,0.437,0.420,0.220,0.193,southwest,7.5,No
2015/12/26,18:30,0.458,0.270,0.478,0.437,0.419,0.220,0.193,southwest,7.1,No
2015/12/26,18:40,0.456,0.269,0.480,0.434,0.419,0.220,0.192,southwest,7.4,No
2015/12/26,18:50,0.455,0.270,0.480,0.436,0.419,0.221,0.192,southwest,7.7,No
2015/12/26,19:00,0.458,0.270,0.476,0.433,0.421,0.221,0.192,southwest,7.8,No
2015/12/26,19:10,0.456,0.269,0.478,0.436,0.421,0.222,0.192,southwest,8.1,No
2015/12/26,19:20,0.457,0.269,0.479,0.437,0.419,0.221,0.193,southwest,8.9,No
2015/12/26,19:30,0.458,0.270,0.479,0.436,0.418,0.220,0.192,southwest,8.2,No
2015/12/26,19:40,0.456,0.269,0.479,0.434,0.421,0.221,0.193,west-southwest,9.2,No
2015/12/26,19:50,0.456,0.268,0.481,0.435,0.418,0.219,0.193,southwest,8.1,No
2015/12/26,20:00,0.457,0.269,0.478,0.437,0.417,0.221,0.193,southwest,9.6,No
2015/12/26,20:10,0.457,0.270,0.477,0.435,0.420,0.221,0.192,southwest,10.7,No
2015/12/26,20:20,0.456,0.269,0.479,0.435,0.419,0.220,0.192,southwest,8.8,No
2015/12/26,20:30,0.456,0.269,0.478,0.436,0.417,0.220,0.193,west-southwest,7.3,No
2015/12/26,20:40,0.457,0.270,0.478,0.436,0.420,0.222,0.193,west-southwest,7.0,No
2015/12/26,20:50,0.457,0.269,0.482,0.436,0.420,0.220,0.193,west-southwest,6.8,No
2015/12/26,21:00,0.457,0.269,0.479,0.437,0.420,0.221,0.192,west-southwest,7.5,No
2015/12/26,21:10,0.457,0.268,0.479,0.436,0.419,0.221,0.193,west-southwest,7.7,No
2015/12/26,21:20,0.456,0.270,0.480,0.436,0.421,0.221,0.193,southwest,7.6,No
2015/12/26,21:30,0.457,0.269,0.479,0.437,0.420,0.220,0.193,southwest,6.6,No
2015/12/26,21:40,0.456,0.269,0.478,0.436,0.419,0.221,0.193,southwest,6.2,No
2015/12/26,21:50,0.456,0.268,0.481,0.434,0.419,0.221,0.192,southwest,6.8,No
2015/12/26,22:00,0.457,0.271,0.480,0.436,0.422,0.220,0.193,west-southwest,5.8,No
2015/12/26,22:10,0.457,0.270,0.478,0.435,0.418,0.220,0.193,west-southwest,7.3,No
2015/12/26,22:20,0.457,0.270,0.480,0.436,0.418,0.220,0.193,west,5.5,No
2015/12/26,22:30,0.456,0.268,0.480,0.436,0.420,0.220,0.194,west-southwest,5.1,No
2015/12/26,22:40,0.457,0.269,0.478,0.435,0.420,0.220,0.193,west-southwest,5.4,No
2015/12/26,22:50,0.458,0.269,0.479,0.437,0.418,0.221,0.192,west-southwest,5.4,No
2015/12/26,23:00,0.456,0.269,0.480,0.435,0.420,0.221,0.193,west-southwest,5.0,No
2015/12/26,23:10,0.457,0.270,0.479,0.436,0.420,0.220,0.193,southwest,6.5,No
2015/12/26,23:20,0.459,0.269,0.479,0.436,0.419,0.220,0.192,west-southwest,5.7,No
2015/12/26,23:30,0.457,0.269,0.480,0.434,0.418,0.220,0.193,west-southwest,6.5,No
2015/12/26,23:40,0.455,0.270,0.478,0.435,0.420,0.220,0.192,west-southwest,4.7,No
2015/12/26,23:50,0.458,0.270,0.479,0.436,0.418,0.222,0.193,southwest,4.6,No
